2025-292B

Last updated on Mon Dec 15 2025 00:02:13 GMT+0000 (Coordinated Universal Time)

1 66994U 25292B 25348.66903223 .00005037 00000+0 36288-3 0 9991 2 66994 97.6545 61.2022 0013614 266.3547 93.6122 15.04559991 688
UTC large
Height (km)
Speed (km/s)
/
Latitude / Longitude
Inclination (degrees)
Orbital Period (minutes)
Azimuth
Elevation
Range (km)
Doppler Factor

Next 0 passes for location: London (51.5072 / 0.1276)

Sorry there are no passes over London.